Tracking 18843 objects as of 20-November-2017
HD Live streaming from Space Station
objects crossing your sky now

FENGYUN 1C DEB

Track FENGYUN 1C DEB now!
10-day predictions


NORAD ID: 33650
Int'l Code: 1999-025DEK
Perigee: 846.9 km
Apogee: 1,085.1 km
Inclination: 99.1 °
Period: 104.2 minutes
Semi major axis: 7337 km
RCS: 0.0036 m2 (small)
Launch date: May 10, 1999
Source: People's Republic of China (PRC)
Launch site: Taiyaun Space Center, China (TSC)

Note: This is SATELLITE DEBRIS
aabbcc
Your satellite tracking list
Your tracking list is empty




NASA's NSSDC Master Catalog

Two Line Element Set (TLE):
1 33650U 99025DEK 17323.49227046  .00001258  00000-0  11050-2 0  9997
2 33650  99.0936 209.2184 0162311  76.4772 285.4407 13.81411767485363
Source of the keplerian elements: AFSPC